Regional Weather Roundup
Issued by NWS

Home | Current Version | Previous Version | Graphics & Text | Print | Product List | Glossary Off
Versions: 1 2 3 4 5 6 7 8 9 10 11 12 13 14 15 16 17 18 19 20 21 22 23 24 25 26 27 28 29 30 31 32 33 34 35 36 37 38 39 40 41 42 43 44 45 46 47 48 49 50

000
ASUS43 KMPX 251101
RWRMN
WEATHER ROUNDUP FOR MINNESOTA
NATIONAL WEATHER SERVICE TWIN CITIES/CHANHASSEN MN
600 AM CDT SAT OCT 25 2014


NOTE: "FAIR" INDICATES FEW OR NO CLOUDS BELOW 12,000 FEET WITH NO
SIGNIFICANT WEATHER AND/OR OBSTRUCTIONS TO VISIBILITY. N/A MEANS
CURRENT SKY AND/OR WEATHER CONDITIONS ARE NOT AVAILABLE.

MNZ060>063-068>070-251200-
   Twin Cities Metro

CITY           SKY/WX    TMP DP  RH WIND       PRES   REMARKS
TWIN CITIES    CLEAR     55  34  45 NW10      29.98R
ST PAUL        CLEAR     54  35  48 NW10      29.98R
CRYSTAL        CLEAR     54  34  46 NW8       29.97R
BLAINE         CLEAR     52  36  54 W9        29.97S
LAKEVILLE      CLEAR     50  37  62 W7        29.98S
EDEN PRAIRIE   CLEAR     55  35  47 NW8       29.97R
SOUTH ST PAUL  CLEAR     57  33  41 NW10      29.97R
LAKE ELMO      FAIR      54  36  50 NW9       29.97S
$$
MNZ001>005-007-008-013>017-022>024-027-028-251200-
   Northwest Minnesota

CITY           SKY/WX    TMP DP  RH WIND       PRES   REMARKS
BEMIDJI        CLEAR     41  31  66 W8        29.96R
HALLOCK        CLEAR     37  30  75 W10       29.95R
ROSEAU         CLEAR     43  34  70 W7        29.91R
WARROAD        CLEAR     41  34  75 W12       29.90R
THIEF RVR FALL CLEAR     37  30  75 W9        29.98R
CROOKSTON      CLEAR     41  32  70 W10       30.01R
FOSSTON        CLEAR     36  30  80 W8        29.99S
DETROIT LAKES  PTCLDY    43  32  65 NW10      30.02R
MOORHEAD       CLOUDY    48  34  57 NW9       30.04S
PARK RAPIDS    CLEAR     42  31  64 W9        29.98R
MAHNOMEN       FAIR      37  31  78 W9        30.00R
$$
MNZ006-009>011-018-025>026-251200-
   North Central Minnesota

CITY           SKY/WX    TMP DP  RH WIND       PRES   REMARKS
BAUDETTE       CLEAR     41  31  67 W3        29.88R
FLAG ISLAND    CLEAR     45  34  65 W17G24    29.84R
INTL FALLS     CLEAR     42  33  70 W10       29.84R
WASKISH        CLEAR     46  36  66 W14G20    29.92R
BIG FORK       CLEAR     46  32  57 W10G17    29.89R
LONGVILLE      CLEAR     46  34  61 W13G20    29.94R
GRAND RAPIDS   CLEAR     46  30  53 NW16G22   29.90R
CRANE LAKE     CLEAR     45  34  65 W7        29.83R
ORR            CLEAR     45  30  57 W10G18    29.82R
COOK           CLEAR     45  34  65 W10       29.85R
WALKER         FAIR      44  31  59 W9        29.95R
$$
MNZ012-019>021-037-251200-
   Northeast Minnesota

CITY           SKY/WX    TMP DP  RH WIND       PRES   REMARKS
DULUTH         CLEAR     49  33  54 NW16G24   29.84R
ELY            CLEAR     46  32  57 W15G23    29.79R
HIBBING        CLEAR     49  31  49 NW15G21   29.86R
EVELETH        CLEAR     46  32  57 W12       29.86R
DULUTH HARBOR  CLEAR     52  37  58 W12       29.86R
TWO HARBORS    CLEAR     52  23  32 W7        29.80R
SILVER BAY     CLEAR     52  32  46 W12G24    29.76R
GRAND MARAIS     N/A     52  34  50 NW12G26   29.66S
G MARAIS ARPRT CLEAR     45  30  57 W9G28     29.70R
$$
MNZ029>031-032-039>041-046>048-054>057-064-251200-
   West Central Minnesota

CITY           SKY/WX    TMP DP  RH WIND       PRES   REMARKS
FERGUS FALLS   PTCLDY    39  27  60 NW6       30.06R
WHEATON        MOCLDY    48  34  57 W10       30.07S
MORRIS         PTCLDY    50  36  57 NW8       30.04R
ALEXANDRIA     FAIR      46  33  60 W9        30.04R
ELBOW LAKE     FAIR      43  33  69 NW7       30.04S
WADENA         CLEAR     45  32  61 W7        30.00R
GLENWOOD       PTCLDY    45  36  70 W8        30.03S
APPLETON       MOCLDY    54  36  50 W8        30.05R
BENSON         MOCLDY    50  37  62 NW6       30.04R
ORTONVILLE     MOCLDY    55  34  44 NW8       30.05S
MADISON        CLOUDY    54  37  54 W7        30.06R
WILLMAR        FAIR      52  36  54 NW9       30.05R
$$
MNZ033>034-036-042>043-049>051-058-059-251200-
   Central Minnesota

CITY           SKY/WX    TMP DP  RH WIND       PRES   REMARKS
ST CLOUD       CLEAR     52  34  50 W10       29.99R
SAUK CENTRE    FAIR      40  33  76 W3        30.02R
PAYNESVILLE    PTCLDY    44  34  68 SW8       30.03R
AITKIN         CLEAR     48  34  57 W5        29.92R
PINE RIVER     CLEAR     45  34  65 W5        29.99R
BRAINERD       CLEAR     48  33  56 W12       29.96R
STAPLES        CLEAR     43  32  65 W9        29.99R
LONG PRAIRIE   FAIR      46  32  57 W8        30.01R
LITTLE FALLS   CLEAR     46  32  57 W6        29.98S
LITCHFIELD     PTCLDY    55  34  44 NW10G17   30.02R
BUFFALO        CLEAR     50  36  58 W7        30.01R
MAPLE LAKE     PTCLDY    50  38  62 W7        30.01R
$$
MNZ037-044-045-052-053-251200-
   East Central Minnesota

CITY           SKY/WX    TMP DP  RH WIND       PRES   REMARKS
PRINCETON      CLEAR     48  36  61 W8        29.97S
MORA           CLEAR     48  32  53 W5        29.96R
CAMBRIDGE      CLEAR     54  37  54 W7        29.94S
RUSH CITY      PTCLDY    45  36  69 W6        29.94S
MOOSE LAKE     CLEAR     48  32  53 W8        29.89R
HINCKLEY       FAIR      46  36  66 W3        29.92S
CLOQUET        CLEAR     48  32  53 W13       29.87R
MCGREGOR       CLEAR     50  34  53 W9        29.92R
$$
MNZ071>073-080-081-089-090-097-098-251200-
   Southwest Minnesota

CITY           SKY/WX    TMP DP  RH WIND       PRES   REMARKS
MONTEVIDEO     CLOUDY    54  37  54 NW6       30.06R
GRANITE FALLS  MOCLDY    50  39  65 W8        30.06R
CANBY          MOCLDY    53  35  51 NW7       30.07R
MARSHALL       MOCLDY    52  34  50 NW9       30.06R
REDWOOD FALLS  MOCLDY    52  37  56 NW8       30.04R
OLIVIA         MOCLDY    52  37  58 NW6       30.03R
PIPESTONE      CLEAR     50  36  57 CALM      30.08R
WINDOM         PTCLDY    54  36  50 NW8       30.05S
WORTHINGTON    CLEAR     46  36  66 NW8       30.08R
JACKSON        PTCLDY    52  34  50 NW7       30.06R
TRACY          PTCLDY    53  36  52 NW6       30.07R
SLAYTON        CLEAR     46  35  64 NW9       30.08R
$$
MNZ065>067-074>077-082>085-091>093-251200-
   South Central Minnesota

CITY           SKY/WX    TMP DP  RH WIND       PRES   REMARKS
MANKATO        CLEAR     52  36  54 NW8       30.01R
NEW ULM        PTCLDY    54  39  58 NW10      30.02S
ST JAMES       PTCLDY    52  37  58 W5        30.05R
FAIRMONT       PTCLDY    54   5  14 NW8       30.04R
GLENCOE        PTCLDY    54  41  62 W7        29.99F
FARIBAULT      CLEAR     48  39  71 W5        30.00R
OWATONNA       CLEAR     45  37  76 W5        30.01R
WASECA         CLEAR     41  36  81 W6        30.03R
ALBERT LEA     PTCLDY    48  41  76 W5        30.01R
$$
MNZ078>079-086>088-094>096-251200-
   Southeast Minnesota

CITY           SKY/WX    TMP DP  RH WIND       PRES   REMARKS
ROCHESTER      CLEAR     48  40  73 W8        29.99R
RED WING       CLEAR     41  39  93 CALM      29.95S
STANTON        CLEAR     48  39  69 SW3       29.97S
DODGE CENTER   PTCLDY    48  39  71 W8        29.99R
WINONA         CLEAR     48  45  87 NW5       29.96R
AUSTIN         CLEAR     48  39  71 NW6       30.00R
PRESTON        CLEAR     48  41  78 NW8       29.98R
$$
ABBREVIATIONS USED IN REMARKS
   TC - TEMPERATURES IN CELSIUS
  WCI - WIND CHILL INDEX
   HX - HEAT INDEX
  VSB - VISIBILITY
$$



USA.gov is the U.S. government's official web portal to all federal, state and local government web resources and services.